This is the latest recevied weather packets stored in our database for station/object KQ4WWD. If no packets are shown the sender has not sent any weather packets the latest 10 day(s).
| Time | Temp. | Humidity | Pressure | Rain* | Wind** | Luminosity | Snow |
|---|---|---|---|---|---|---|---|
| 1788447803 | 29.44° C | 87% | 1015 hPa | 0 mm | - | 701 W/m² | - |
| 1788447498 | 28.89° C | 88% | 1015.2 hPa | 0 mm | - | 884 W/m² | - |
| 1788447193 | 28.89° C | 87% | 1014.9 hPa | 0 mm | - | 541 W/m² | - |
| 1788446892 | 28.89° C | 88% | 1015.3 hPa | 1.78 mm | - | 818 W/m² | - |
| 1788446588 | 28.33° C | 90% | 1015.2 hPa | 1.78 mm | - | 910 W/m² | - |
| 1788446283 | 27.78° C | 92% | 1015.2 hPa | 0 mm | - | 567 W/m² | - |
| 1788445980 | 27.22° C | 92% | 1015.2 hPa | 0 mm | - | 313 W/m² | - |
| 1788445675 | 27.22° C | 93% | 1015.2 hPa | 0 mm | - | 270 W/m² | - |
| 1788445371 | 26.67° C | 93% | 1015.1 hPa | 0 mm | - | 236 W/m² | - |
| 1788445067 | 26.67° C | 93% | 1015.2 hPa | 0 mm | - | 153 W/m² | - |
| 1788444762 | 26.67° C | 93% | 1015 hPa | 0 mm | - | 149 W/m² | - |
| 1788444463 | 26.67° C | 94% | 1015.3 hPa | 0 mm | - | 163 W/m² | - |
| 1788444157 | 26.67° C | 94% | 1015.1 hPa | 0 mm | - | 154 W/m² | - |
| 1788443854 | 26.11° C | 94% | 1015.1 hPa | 0 mm | - | 148 W/m² | - |
| 1788443549 | 26.11° C | 94% | 1015.2 hPa | 0 mm | - | 144 W/m² | - |
| 1788443247 | 26.11° C | 94% | 1014.9 hPa | 0 mm | - | 136 W/m² | - |
| 1788442944 | 26.11° C | 94% | 1014.8 hPa | 0 mm | - | 139 W/m² | - |
| 1788442641 | 26.11° C | 94% | 1015.1 hPa | 0 mm | - | 126 W/m² | - |
| 1788442338 | 26.11° C | 94% | 1014.6 hPa | 0 mm | - | 111 W/m² | - |
| 1788442038 | 26.11° C | 94% | 1015 hPa | 0 mm | - | 98 W/m² | - |
| 1788441737 | 26.11° C | 95% | 1014.7 hPa | 0 mm | - | 88 W/m² | - |
| 1788441433 | 25.56° C | 95% | 1014.8 hPa | 0 mm | - | 73 W/m² | - |
| 1788441133 | 25.56° C | 95% | 1014.7 hPa | 0 mm | - | 59 W/m² | - |
| 1788440828 | 25.56° C | 95% | 1014.8 hPa | 0 mm | - | 48 W/m² | - |
| 1788440522 | 25.56° C | 95% | 1014.8 hPa | 0 mm | - | 40 W/m² | - |
* Rain latest hour (hover to see other rain measurements)
** Current wind speed in m/s (hover to see current wind gust speed)